Regional Weather Roundup
Issued by NWS

Home | Current Version | Previous Version | Graphics & Text | Print | Product List | Glossary On
Versions: 1 2 3 4 5 6 7 8 9 10 11 12 13 14 15 16 17 18 19 20 21 22 23 24 25 26 27 28 29 30 31 32 33 34
000
ASUS45 KBOI 212210
RWRID
WEATHER ROUNDUP FOR IDAHO
NATIONAL WEATHER SERVICE BOISE ID
400 PM MDT TUE OCT 21 2014

NOTE: "FAIR" INDICATES FEW OR NO CLOUDS BELOW 12000 FEET
WITH NO SIGNIFICANT WEATHER AND/OR OBSTRUCTIONS TO VISIBILITY

IDZ012-014-212300-
SOUTHWEST IDAHO


CITY           SKY/WX    TMP DP  RH WIND       PRES   REMARKS
BOISE          SUNNY     58  37  45 NW5       30.04S
CALDWELL       SUNNY     63  34  34 W8        30.05S
MOUNTAIN HOME  MOSUNNY   58  37  45 NW14      30.04F
$$

IDZ016-017-212300-
SOUTHCENTRAL IDAHO


CITY           SKY/WX    TMP DP  RH WIND       PRES   REMARKS
BURLEY         MOSUNNY   51  37  58 W15G22    30.05R
JEROME         MOSUNNY   52  38  58 W22       30.06S
TWIN FALLS     SUNNY     56  35  45 W24       30.05S
$$

IDZ019>023-212300-
SOUTHEAST IDAHO


CITY           SKY/WX    TMP DP  RH WIND       PRES   REMARKS
IDAHO FALLS    CLOUDY    54  33  45 SW22G31   30.01R
POCATELLO      PTSUNNY   52  35  52 SW22G30   30.05R
REXBURG        PTSUNNY   52  33  48 SW17G30   29.98F
$$

IDZ006-010-011-018-031-032-212300-
CENTRAL IDAHO MOUNTAINS


CITY           SKY/WX    TMP DP  RH WIND       PRES   REMARKS
MCCALL         CLOUDY    45  38  76 E7        30.01S
HAILEY         MOSUNNY   50  37  62 CALM      30.01S
STANLEY          N/A     42  32  67 SW5       30.05R
SALMON         CLOUDY    46  37  71 SE3       30.01R
CHALLIS        LGT RAIN  48  35  60 CALM      30.00R
$$

IDZ002-004-006-007-026-212300-
NORTHERN IDAHO


CITY           SKY/WX    TMP DP  RH WIND       PRES   REMARKS
LEWISTON       CLOUDY    62  41  46 E5        29.96R
LOWELL           N/A     51  49  92 CALM      30.02R
COEUR D`ALENE  CLOUDY    55  43  62 SW9       29.94R
MULLAN PASS    CLOUDY    35  35 100 VRB6      29.94S WCI  30
$$



USA.gov is the U.S. government's official web portal to all federal, state and local government web resources and services.